Torna al catalogo

COSMOS 2201

AttivoNavigazionePO
NORAD 22038·PAYLOAD·🇷🇺 Russia

Lanciato Jul 13, 1992 da Plesetsk Cosmodrome

Loading…

Prossimi Passaggi (prossime 24 ore)

TLE

AggiornatoSource: Space-Track

Epoca: Sep 14, 2026, 06:56 UTC

1 22038U 92042E   26257.28893677  .00000015  00000-0  25098-4 0  9998
2 22038  82.5922 203.7424 0009920 112.0352  55.0679 12.61788123573535

Traccia COSMOS 2201 in tempo reale con AllMySat

Download on the App Store